Location: Doussal
(55.6167°N, 116.8333°W)
Time: 06:04:33
(UTC+00:00)

METEOR M2 - Pass Details

Date: 12 December 2023
Orbit: 818 x 826 km, 98.4° (Epoch: 25 February)

Event Time Altitude Azimuth Distance (km) Brightness Sun altitude
Rises 02:13:41 0° 215° (SW) 3,358 ? -23.4°
Reaches altitude 10° 02:16:55 10° 236° (SW) 2,430 ? -23.9°
Maximum altitude 02:20:18 17° 275° (W) 1,998 ? -24.4°
Drops below altitude 10° 02:23:42 10° 315° (NW) 2,439 ? -24.8°
Sets 02:26:59 0° 335° (NNW) 3,376 ? -25.3°
